WESTFORD NEEDLES, 2796

Orbit data source: Space-Track

WESTFORD NEEDLES, 2796 is space debris in LEO originally from a launch on Thu, 09 May 1963 UTC launched from the Air Force Western Test Range (AFWTR). Debris objects in space refer to the collection of defunct objects orbiting the Earth. Examples of debris include non-operational satellites, rocket bodies, and fragments generated from explosions, collisions, or faulty payload assembly.

Loading next visibility...
Identifier
2796, 1963-014AQ
Orbit
LEO
Country
Flag of USUS
Related business
Manufacturer
Unknown
Mission
Spacecraft
Bus & Motor
Unknown
Mass
Unknown
Launch date (UTC)
1963-05-09 (63 years ago)
Launch vehicle
Unknown
Launch site
Air Force Western Test Range (AFWTR)
Object type
Payload
Rocket body
Debris
Shape & HBR
Unknown shape, 0.3 m
Radar Cross Section
Medium (>0.1 m² and <1 m²)

Expand to show TLE details & history
Last TLE update: 2 days ago

TLE from 2 days ago
0 WESTFORD NEEDLES
1 02796U 63014AQ  26110.33703714  .00000013  00000-0  42451-2 0  9998
2 02796  87.2010  92.4530 0563504 228.4343 126.6877  8.68320849920035
Epoch: 2026-04-20T08:05Z
TLE epoch observation values (Epoch: 2026-04-20T08:05:20.008Z)
Latitude
-0.00003°
Longitude
122.69101°
Altitude
3,978.933 km
Speed
6.093 km/s
True Right ascension
06h 09m 48s
True Declination
0° 00' 00"
Sunlit
Object was in daylight at epoch
Visualization orbit readout
Latitude
Unknown
Longitude
Unknown
Altitude
Unknown
Speed
Unknown
Apparent Right ascension
Unknown
Apparent Declination
Unknown
Sunlit
N/A
Visualization observer readout
Local Sidereal Time
11:48:03
Azimuth
Unknown
Elevation
Unknown
Doppler factor
Unknown
Orbital elements
Apogee altitude
4,181.797 km
Perigee altitude
3,055.17 km
Semi-major axis
9,996.62 km
Eccentricity
0.05635
Inclination
87.201°
RAAN
92.453°
Arg. of periapsis
228.4343°
True anomaly
131.65021°
Mean anomaly
126.6877°
Eccentric anomaly
129.19007°
Mean motion
2.17152 °/min
Orbital period
165.78 mins
BSTAR
0.0042451
Loading maneuver chart data...
Computing Atmospheric mass density...

Documentation

Showing up to 5 results
|